Location: Unspecified
(0.0000°N, 0.0000°E)
Time: 11:39:16
(UTC+00:00)

HTV-X1 - Visible Passes

Search period start: 11 May 2026 00:00
Search period end: 21 May 2026 00:00
Orbit: 373 x 383 km, 51.6° (Epoch: 11 May)

Date Brightness Start Highest point End Pass type
(mag) Time Alt. Az. Time Alt. Az. Time Alt. Az.
11 May ? 04:22:23 10° NNE 04:24:04 14° NE 04:25:46 10° E visible
12 May ? 04:55:54 10° NW 04:58:57 60° SW 05:02:03 10° SSE visible
13 May ? 04:00:44 11° ESE 04:00:44 11° ESE 04:00:56 10° ESE visible
